Home > Weather > Zoetermeer > Past weeks

Flag for Netherlands Past Weather in Zoetermeer, Netherlands — Yesterday and Last 2 Weeks

Now
70 °F

Fog.


Feels Like: 70 °F
Forecast: 57 / 66 °F
Wind: 3 mph from West

Location: Rotterdam Zestienhoven Airport

Current Time: Aug 28, 2016 at 9:04:53 AM

Latest Report: Aug 28, 2016 at 8:25 AM


Visibility: 3 mi

Pressure: 29.83 "Hg

Humidity: 88%

Dew Point: 66 °F

Location of ZoetermeerLocation

Past Weather in Zoetermeer — Graph

°F

Zoetermeer Temperature Yesterday

Maximum temperature yesterday: 81 °F (at 3:25 PM)
Minimum temperature yesterday: 61 °F (at 4:25 AM)
Average temperature yesterday: 71 °F

High & Low Weather Summary for the Past Weeks

 TemperatureHumidityPressure
High90 °F (Aug 24, 4:25 PM)100% (Aug 13, 10:55 PM)30.30 "Hg (Aug 13, 10:55 PM)
Low52 °F (Aug 15, 1:55 AM)32% (Aug 17, 4:25 PM)29.71 "Hg (Aug 19, 7:55 PM)
Average67 °F75%30.04 "Hg
* Reported Aug 13 7:25 AM — Aug 28 7:55 AM, Zoetermeer, Weather by CustomWeather, © 2016

Note: Actual official high and low records may vary slightly from our data, if they occured in-between our weather recording intervals... More about our weather records

Advertising

Zoetermeer Weather History for the Previous 24 Hours

Scroll right to see more
 ConditionsComfort  
Time TempWeatherWind HumidityBarometerVisibility
7:55 AM
Sun, Aug 28
70 °FThunderstorms. Fog.6 mph88%29.83 "Hg2 mi
7:25 AM66 °FFog.3 mph100%29.83 "Hg1 mi
6:55 AM66 °FFog.3 mph100%29.83 "Hg2 mi
6:25 AM68 °FFog.2 mph94%29.83 "Hg3 mi
5:55 AM70 °FMild.6 mph88%29.83 "Hg4 mi
5:25 AM70 °FMild.7 mph88%29.83 "Hg4 mi
4:55 AM68 °FMild.3 mph94%29.86 "Hg4 mi
4:25 AM66 °FClear.5 mph100%29.86 "Hg5 mi
3:55 AM68 °FMild.3 mph94%29.86 "Hg6 mi
3:25 AM68 °FClear.6 mph94%29.86 "Hg6 mi
2:55 AM68 °FClear.5 mph94%29.86 "HgN/A
2:25 AM66 °FMild.5 mph100%29.86 "HgN/A
1:55 AM66 °FClear.2 mph100%29.86 "HgN/A
1:25 AM70 °FMild.2 mph88%29.89 "HgN/A
12:55 AM72 °FMild.1 mph83%29.89 "HgN/A
11:55 PM
Sat, Aug 27
73 °FMild.3 mph78%29.89 "HgN/A
11:25 PM72 °FMild.3 mph83%29.89 "HgN/A
10:55 PM72 °FMild.3 mph83%29.89 "HgN/A
10:25 PM73 °FMild.3 mph78%29.89 "HgN/A
9:55 PM75 °FClear.7 mph74%29.92 "HgN/A
9:25 PM77 °FWarm.7 mph69%29.92 "HgN/A
8:55 PM77 °FWarm.7 mph69%29.92 "HgN/A
8:25 PM77 °FPassing clouds.7 mph69%29.92 "HgN/A
7:55 PM79 °FClear.10 mph65%29.92 "HgN/A
7:25 PM79 °FClear.9 mph61%29.92 "HgN/A
6:55 PM79 °FClear.15 mph61%29.92 "HgN/A
6:25 PM79 °FWarm.13 mph61%29.95 "HgN/A
5:55 PM79 °FWarm.15 mph61%29.95 "HgN/A
5:25 PM81 °FClear.16 mph58%29.95 "HgN/A
4:55 PM81 °FClear.16 mph58%29.98 "HgN/A
4:25 PM81 °FClear.16 mph54%29.98 "HgN/A
3:55 PM81 °FClear.16 mph54%29.98 "HgN/A
3:25 PM81 °FClear.16 mph54%30.01 "HgN/A
2:55 PM79 °FWarm.14 mph54%30.01 "HgN/A
2:25 PM79 °FClear.16 mph54%30.04 "HgN/A
1:55 PM79 °FClear.14 mph54%30.04 "HgN/A
1:25 PM77 °FClear.16 mph57%30.04 "HgN/A
12:55 PM77 °FClear.14 mph57%30.07 "HgN/A
12:25 PM75 °FClear.15 mph57%30.07 "HgN/A
11:55 AM73 °FMild.16 mph57%30.07 "HgN/A
11:25 AM73 °FMild.15 mph57%30.09 "HgN/A
10:55 AM72 °FClear.14 mph65%30.09 "HgN/A
10:25 AM70 °FPassing clouds.14 mph69%30.09 "HgN/A
9:55 AM68 °FPassing clouds.13 mph78%30.09 "HgN/A
9:25 AM66 °FClear.10 mph83%30.09 "HgN/A
Weather by CustomWeather, © 2016

See weather overviewHow to use our weather pages